Regional Weather Roundup
Issued by NWS

Current Version | Previous Version | Text Only | Print | Product List | Glossary On
Versions: 1 2 3 4 5 6 7 8 9 10 11 12 13 14 15 16 17 18 19 20 21 22 23 24 25 26 27 28 29 30 31 32 33 34 35 36 37 38 39 40 41 42 43 44 45 46 47 48 49 50
000
ASUS44 KOUN 170500
RWROK

WEATHER ROUNDUP FOR OKLAHOMA
NATIONAL WEATHER SERVICE NORMAN OK
1100 PM CST SUN DEC 16 2018

NOTE: "FAIR" INDICATES FEW OR NO CLOUDS BELOW 12,000 FEET WITH NO
      SIGNIFICANT WEATHER AND/OR OBSTRUCTIONS TO VISIBILITY.

OKZ001>007-009>012-014-015-017-170600-
NORTHWEST OKLAHOMA AND THE PANHANDLE

CITY           SKY/WX    TMP DP  RH WIND       PRES   REMARKS
GAGE           CLOUDY    30  22  72 W6        30.32R WCI  24
GUYMON         CLOUDY    35  20  54 CALM      30.33R
$$

OKZ016-021>023-033>039-044-045-170600-
SOUTHWEST OKLAHOMA

CITY           SKY/WX    TMP DP  RH WIND       PRES   REMARKS
LAWTON/REGL    CLOUDY    35  29  78 NW3       30.29R
LAWTON/FT SILL CLOUDY    39  27  62 N6        30.27R WCI  35
FREDERICK      CLOUDY    41  28  60 MISG      30.28R
CLINTON        CLOUDY    34  20  56 NW6       30.31R WCI  29
HOBART         CLOUDY    37  22  54 N7        30.31R WCI  32
ALTUS AFB      CLOUDY    44  19  37 N5        30.31R
$$

OKZ018>020-024>031-170600-
CENTRAL OKLAHOMA

CITY           SKY/WX    TMP DP  RH WIND       PRES   REMARKS
OKLAHOMA CITY  CLOUDY    36  26  67 NW7       30.28R WCI  30
OKC/WILEY POST CLOUDY    39  25  57 N6        30.28S WCI  35
OKC/TINKER AFB CLOUDY    41  27  58 N6        30.27R
STILLWATER     FLURRIES  38  24  57 N9        30.28S WCI  31
GUTHRIE        CLOUDY    35  26  69 CALM      30.28S
$$

OKZ008-013-054>072-170600-
NORTHEAST OKLAHOMA

CITY           SKY/WX    TMP DP  RH WIND       PRES   REMARKS
TULSA          CLEAR     35  31  85 N6        30.27S WCI  30
TULSA/JONES    CLEAR     34  32  92 CALM      30.27S
PONCA CITY     CLOUDY    30  22  72 N6        30.30R WCI  24
BARTLESVILLE   CLEAR     30  24  78 CALM      30.30S
MUSKOGEE       CLEAR     37  35  92 N5        30.27S WCI  33
$$

OKZ032-040>043-046>053-073>077-170600-
SOUTH CENTRAL/SOUTHEAST OKLAHOMA

CITY           SKY/WX    TMP DP  RH WIND       PRES   REMARKS
MCALESTER        N/A    N/A N/A N/A MISG        N/A
$$





USA.gov is the U.S. government's official web portal to all federal, state and local government web resources and services.